Hattiesburg, MS

9:55 PM CDT on July 29, 2016 (GMT -0500)
Chain Municipal

Weather History for KHBG - March, 2014

Change the Weather History Date:

Saturday, March 15, 2014

  Actual Average Record
Temperature  
Mean Temperature 59 °F 59 °F  
Max Temperature 68 °F 71 °F 89 °F (2008)
Min Temperature 50 °F 47 °F 28 °F (1993)
Degree Days  
Heating Degree Days 6 7  
Month to date heating degree days 153 126  
Since 1 July heating degree days 2076 1804  
Cooling Degree Days 0 1  
Month to date cooling degree days 4 15  
Year to date cooling degree days 21 30  
Growing Degree Days 9 (Base 50)    
Moisture  
Dew Point 55 °F    
Average Humidity 80    
Maximum Humidity 96    
Minimum Humidity 63    
Precipitation  
Precipitation 0.02 in 0.17 in 4.04 in (1964)
Month to date precipitation 1.98 2.75  
Year to date precipitation 11.88 13.88  
Sea Level Pressure  
Sea Level Pressure 30.02 in    
Wind  
Wind Speed 5 mph (ESE)    
Max Wind Speed 14 mph    
Max Gust Speed 18 mph    
Visibility 9 miles    
Events Rain    
T = Trace of Precipitation, MM = Missing Value Source: NWS Daily Summary

Daily Weather History Graph

Daily Weather History Graph

Search for Another Location

Airport or City:

Trip Planner

Search our weather history database for the weather conditions in past years. The results will help you decide how hot, cold, wet, or windy it might be!

Date:

Astronomy

Mar. 15, 2014 Rise Set
Actual Time 7:07 AM CDT 7:05 PM CDT
Civil Twilight 6:42 AM CDT 7:29 PM CDT
Nautical Twilight 6:14 AM CDT 7:57 PM CDT
Astronomical Twilight 5:46 AM CDT 8:25 PM CDT
Moon 6:24 PM CDT (3/15) 6:16 AM CDT (3/15)
Length of Visible Light 12h 46m
Length of Day
11h 58m
Waxing Gibbous, 99% of the Moon is Illuminated
Mar 15
Waxing Gibbous
Mar 16
Full
Mar 23
Last Quarter
Mar 30
New
Apr 7
First Quarter

Hourly Weather History & Observations

Time (CDT) Temp. Dew Point Humidity Pressure Visibility Wind Dir Wind Speed Gust Speed Precip Events Conditions
12:53 AM 51.1 °F 48.9 °F 92% 30.14 in 10.0 mi Calm Calm - N/A   Clear
1:53 AM 52.0 °F 48.9 °F 89% 30.12 in 10.0 mi Calm Calm - N/A   Scattered Clouds
2:53 AM 53.1 °F 50.0 °F 89% 30.09 in 10.0 mi SSE 5.8 mph - N/A   Partly Cloudy
3:53 AM 53.1 °F 50.0 °F 89% 30.08 in 10.0 mi Calm Calm - N/A   Clear
4:53 AM 52.0 °F 50.0 °F 93% 30.09 in 10.0 mi Calm Calm - N/A   Scattered Clouds
5:53 AM 51.1 °F 48.9 °F 92% 30.09 in 10.0 mi Calm Calm - N/A   Scattered Clouds
6:53 AM 50.0 °F 48.9 °F 96% 30.09 in 9.0 mi Calm Calm - N/A   Scattered Clouds
7:53 AM 52.0 °F 50.0 °F 93% 30.09 in 10.0 mi Calm Calm - N/A   Overcast
8:53 AM 54.0 °F 52.0 °F 93% 30.10 in 7.0 mi Calm Calm - N/A   Overcast
9:53 AM 57.0 °F 54.0 °F 89% 30.12 in 9.0 mi Calm Calm - N/A   Overcast
10:53 AM 60.1 °F 55.0 °F 83% 30.12 in 10.0 mi Calm Calm - N/A   Overcast
11:53 AM 66.0 °F 57.0 °F 73% 30.10 in 10.0 mi ESE 4.6 mph - N/A   Mostly Cloudy
12:53 PM 66.9 °F 57.0 °F 70% 30.07 in 10.0 mi East 4.6 mph - N/A   Overcast
1:53 PM 66.9 °F 57.0 °F 70% 30.04 in 10.0 mi SE 5.8 mph - N/A   Overcast
2:53 PM 68.0 °F 55.0 °F 63% 30.01 in 10.0 mi ESE 6.9 mph - N/A   Overcast
3:42 PM 66.9 °F 55.9 °F 68% 29.99 in 10.0 mi ESE 5.8 mph - N/A   Overcast
3:49 PM 66.2 °F 55.4 °F 68% 29.98 in 10.0 mi East 8.1 mph - N/A   Overcast
3:53 PM 66.9 °F 57.0 °F 70% 29.98 in 10.0 mi East 6.9 mph - N/A   Overcast
4:53 PM 66.0 °F 57.0 °F 73% 29.97 in 10.0 mi ESE 12.7 mph - N/A   Overcast
5:53 PM 64.0 °F 57.9 °F 80% 29.95 in 10.0 mi East 11.5 mph - N/A   Overcast
6:06 PM 63.0 °F 57.0 °F 81% 29.96 in 10.0 mi East 10.4 mph - N/A   Overcast
6:53 PM 62.1 °F 57.0 °F 84% 29.95 in 10.0 mi ESE 9.2 mph - N/A   Overcast
7:20 PM 62.1 °F 57.0 °F 84% 29.94 in 10.0 mi East 10.4 mph 18.4 mph N/A   Overcast
7:53 PM 62.1 °F 57.0 °F 84% 29.95 in 10.0 mi East 6.9 mph - N/A   Overcast
8:53 PM 61.0 °F 57.0 °F 87% 29.95 in 10.0 mi East 6.9 mph - N/A   Overcast
9:31 PM 60.1 °F 57.0 °F 90% 29.94 in 10.0 mi ESE 8.1 mph - N/A   Overcast
9:53 PM 60.1 °F 57.0 °F 90% 29.93 in 6.0 mi East 5.8 mph - 0.01 in Rain Rain
10:53 PM 59.0 °F 57.9 °F 96% 29.88 in 7.0 mi East 8.1 mph - 0.00 in   Overcast
11:26 PM 60.1 °F 57.9 °F 93% 29.90 in 5.0 mi ESE 6.9 mph - N/A   Overcast
11:53 PM 59.0 °F 57.9 °F 96% 29.86 in 2.5 mi East 6.9 mph - 0.00 in Rain Light Rain